{"data":{"norad_id":53626,"epoch":"2026-09-20T04:45:06.338592Z","epoch_age_seconds":108415,"freshness":"FRESH","line1":"1 53626U 22104AQ  26263.19799003  .00000063  00000+0  13245-4 0  9995","line2":"2 53626  53.1591  69.4569 0001067  92.8926 267.2198 15.33550029225273","mean_motion":15.33550029,"eccentricity":0.0001067,"inclination_deg":53.1591,"raan_deg":69.4569,"arg_perigee_deg":92.8926,"mean_anomaly_deg":267.2198,"bstar":1.3245e-5,"rev_number":22527,"period_min":93.899773256109,"perigee_km":464.50051256973,"apogee_km":465.96088723689,"semimajor_km":6843.3676999033,"source":"CELESTRAK","updated_at":"2026-09-21T09:00:32.943124Z"}}